Terminal Aerodrome Forecast
Issued by NWS

Home | Current Version | Previous Version | Text Only | Print | Product List | Glossary On
Versions: 1 2 3 4 5 6 7 8 9 10 11 12 13 14 15 16 17 18 19 20 21 22 23 24 25 26 27 28 29
000
FTUS41 KBOX 280521
TAFFMH
TAF
KFMH 280521Z 2806/2906 26005KT P6SM BKN050
     FM281100 35007KT P6SM SCT250
     FM281700 36010G20KT P6SM FEW050
     FM282300 33006KT P6SM SKC=

USA.gov is the U.S. government's official web portal to all federal, state and local government web resources and services.